Location: Unspecified
(36.1310°N, 0.0000°E)
Time: 18:50:41
(UTC+00:00)

CZ-6A DEB - Visible Passes

Search period start: 04 April 2026 00:00
Search period end: 14 April 2026 00:00
Orbit: 771 x 949 km, 88.8° (Epoch: 28 March)

Date Brightness Start Highest point End Pass type
(mag) Time Alt. Az. Time Alt. Az. Time Alt. Az.
4 Apr ? 04:10:58 10° SE 04:15:20 23° E 04:19:35 10° NNE visible
5 Apr ? 04:02:08 10° SE 04:06:13 20° ENE 04:10:11 10° NNE visible
6 Apr ? 03:53:19 10° ESE 03:57:05 18° ENE 04:00:45 10° NE visible
7 Apr ? 03:44:33 10° ESE 03:47:57 16° ENE 03:51:16 10° NE visible
8 Apr ? 03:35:51 10° ESE 03:38:48 15° ENE 03:41:42 10° NE visible
9 Apr ? 03:27:15 10° ESE 03:29:40 13° ENE 03:32:02 10° NE visible
9 Apr ? 05:05:30 10° S 05:11:11 69° W 05:16:38 10° N visible
10 Apr ? 03:18:52 10° E 03:20:31 11° ENE 03:22:09 10° ENE visible
10 Apr ? 04:56:18 10° S 05:01:58 76° W 05:07:26 10° N visible
11 Apr ? 04:47:06 10° S 04:52:45 84° W 04:58:11 10° N visible
12 Apr ? 04:37:53 10° S 04:43:32 88° E 04:48:56 10° N visible
13 Apr ? 04:28:42 10° S 04:34:18 79° E 04:39:40 10° N visible
